owner,sensor,date,latitude,longitude,vertical_datum,wind_speed,wind_to_direction,wind_speed_of_gust,qcFlag 
DISL,ioos:station:DISL:DISL:1,2009-08-01T00:00:00Z,30.2513,-88.0778,9.68,0.9,74.5,-9999.0,'1111122,1111122,1111122' 
DISL,ioos:station:DISL:DISL:1,2009-08-01T00:30:00Z,30.2513,-88.0778,9.68,1.86,141.3,-9999.0,'1111122,1111122,1111122' 
DISL,ioos:station:DISL:DISL:1,2009-08-01T01:00:00Z,30.2513,-88.0778,9.68,2.41,138.4,-9999.0,'1111122,1111122,1111122' 
DISL,ioos:station:DISL:DISL:1,2009-08-01T01:30:00Z,30.2513,-88.0778,9.68,2.6,135.1,-9999.0,'1111122,1111122,1111122' 
DISL,ioos:station:DISL:DISL:1,2009-08-01T02:00:00Z,30.2513,-88.0778,9.68,2.5,136.1,-9999.0,'1111122,1111122,1111122' 
DISL,ioos:station:DISL:DISL:1,2009-08-01T02:30:00Z,30.2513,-88.0778,9.68,3.03,150.7,-9999.0,'1111122,1111122,1111122' 
DISL,ioos:station:DISL:DISL:1,2009-08-01T03:00:00Z,30.2513,-88.0778,9.68,2.68,162.0,-9999.0,'1111122,1111122,1111122' 
DISL,ioos:station:DISL:DISL:1,2009-08-01T03:30:00Z,30.2513,-88.0778,9.68,3.39,152.4,-9999.0,'1111122,1111122,1111122' 
DISL,ioos:station:DISL:DISL:1,2009-08-01T04:00:00Z,30.2513,-88.0778,9.68,2.87,159.2,-9999.0,'1111122,1111122,1111122' 
DISL,ioos:station:DISL:DISL:1,2009-08-01T04:30:00Z,30.2513,-88.0778,9.68,2.73,169.2,-9999.0,'1111122,1111122,1111122' 
DISL,ioos:station:DISL:DISL:1,2009-08-01T05:00:00Z,30.2513,-88.0778,9.68,2.89,155.4,-9999.0,'1111122,1111122,1111122' 
DISL,ioos:station:DISL:DISL:1,2009-08-01T05:30:00Z,30.2513,-88.0778,9.68,2.89,156.8,-9999.0,'1111122,1111122,1111122' 
DISL,ioos:station:DISL:DISL:1,2009-08-01T06:00:00Z,30.2513,-88.0778,9.68,2.15,226.3,-9999.0,'1111122,1111122,1111122' 
DISL,ioos:station:DISL:DISL:1,2009-08-01T06:30:00Z,30.2513,-88.0778,9.68,1.71,234.2,-9999.0,'1111122,1111122,1111122' 
DISL,ioos:station:DISL:DISL:1,2009-08-01T07:00:00Z,30.2513,-88.0778,9.68,1.49,230.6,-9999.0,'1111122,1111122,1111122' 
DISL,ioos:station:DISL:DISL:1,2009-08-01T07:30:00Z,30.2513,-88.0778,9.68,1.77,225.7,-9999.0,'1111122,1111122,1111122' 
DISL,ioos:station:DISL:DISL:1,2009-08-01T08:00:00Z,30.2513,-88.0778,9.68,2.04,225.3,-9999.0,'1111122,1111122,1111122' 
DISL,ioos:station:DISL:DISL:1,2009-08-01T08:30:00Z,30.2513,-88.0778,9.68,2.05,218.6,-9999.0,'1111122,1111122,1111122' 
DISL,ioos:station:DISL:DISL:1,2009-08-01T09:00:00Z,30.2513,-88.0778,9.68,2.27,238.0,-9999.0,'1111122,1111122,1111122' 
DISL,ioos:station:DISL:DISL:1,2009-08-01T09:30:00Z,30.2513,-88.0778,9.68,2.31,219.1,-9999.0,'1111122,1111122,1111122' 
DISL,ioos:station:DISL:DISL:1,2009-08-01T10:00:00Z,30.2513,-88.0778,9.68,2.46,235.1,-9999.0,'1111122,1111122,1111122' 
DISL,ioos:station:DISL:DISL:1,2009-08-01T10:30:00Z,30.2513,-88.0778,9.68,2.31,224.3,-9999.0,'1111122,1111122,1111122' 
DISL,ioos:station:DISL:DISL:1,2009-08-01T11:00:00Z,30.2513,-88.0778,9.68,2.05,256.8,-9999.0,'1111122,1111122,1111122' 
DISL,ioos:station:DISL:DISL:1,2009-08-01T11:30:00Z,30.2513,-88.0778,9.68,2.2,251.6,-9999.0,'1111122,1111122,1111122' 
DISL,ioos:station:DISL:DISL:1,2009-08-01T12:00:00Z,30.2513,-88.0778,9.68,2.14,250.1,-9999.0,'1111122,1111122,1111122' 
DISL,ioos:station:DISL:DISL:1,2009-08-01T12:30:00Z,30.2513,-88.0778,9.68,1.85,254.7,-9999.0,'1111122,1111122,1111122' 
DISL,ioos:station:DISL:DISL:1,2009-08-01T13:00:00Z,30.2513,-88.0778,9.68,2.22,236.7,-9999.0,'1111122,1111122,1111122' 
DISL,ioos:station:DISL:DISL:1,2009-08-01T13:30:00Z,30.2513,-88.0778,9.68,3.16,262.2,-9999.0,'1111122,1111122,1111122' 
DISL,ioos:station:DISL:DISL:1,2009-08-01T14:00:00Z,30.2513,-88.0778,9.68,7.38,294.1,-9999.0,'1111122,1111122,1111122' 
DISL,ioos:station:DISL:DISL:1,2009-08-01T14:30:00Z,30.2513,-88.0778,9.68,5.16,291.9,-9999.0,'1111122,1111122,1111122' 
DISL,ioos:station:DISL:DISL:1,2009-08-01T15:00:00Z,30.2513,-88.0778,9.68,2.83,308.8,-9999.0,'1111122,1111122,1111122' 
DISL,ioos:station:DISL:DISL:1,2009-08-01T15:30:00Z,30.2513,-88.0778,9.68,1.84,296.6,-9999.0,'1111122,1111122,1111122' 
DISL,ioos:station:DISL:DISL:1,2009-08-01T16:00:00Z,30.2513,-88.0778,9.68,1.4,285.7,-9999.0,'1111122,1111122,1111122' 
DISL,ioos:station:DISL:DISL:1,2009-08-01T16:30:00Z,30.2513,-88.0778,9.68,1.1,287.2,-9999.0,'1111122,1111122,1111122' 
DISL,ioos:station:DISL:DISL:1,2009-08-01T17:00:00Z,30.2513,-88.0778,9.68,2.3,165.4,-9999.0,'1111122,1111122,1111122' 
DISL,ioos:station:DISL:DISL:1,2009-08-01T17:30:00Z,30.2513,-88.0778,9.68,2.03,153.2,-9999.0,'1111122,1111122,1111122' 
DISL,ioos:station:DISL:DISL:1,2009-08-01T18:00:00Z,30.2513,-88.0778,9.68,2.71,103.0,-9999.0,'1111122,1111122,1111122' 
DISL,ioos:station:DISL:DISL:1,2009-08-01T18:30:00Z,30.2513,-88.0778,9.68,3.06,126.8,-9999.0,'1111122,1111122,1111122' 
DISL,ioos:station:DISL:DISL:1,2009-08-01T19:00:00Z,30.2513,-88.0778,9.68,3.41,137.4,-9999.0,'1111122,1111122,1111122' 
DISL,ioos:station:DISL:DISL:1,2009-08-01T19:30:00Z,30.2513,-88.0778,9.68,2.77,133.6,-9999.0,'1111122,1111122,1111122' 
DISL,ioos:station:DISL:DISL:1,2009-08-01T20:00:00Z,30.2513,-88.0778,9.68,3.07,151.9,-9999.0,'1111122,1111122,1111122' 
DISL,ioos:station:DISL:DISL:1,2009-08-01T20:30:00Z,30.2513,-88.0778,9.68,2.63,163.1,-9999.0,'1111122,1111122,1111122' 
DISL,ioos:station:DISL:DISL:1,2009-08-01T21:00:00Z,30.2513,-88.0778,9.68,2.9,171.3,-9999.0,'1111122,1111122,1111122' 
DISL,ioos:station:DISL:DISL:1,2009-08-01T21:30:00Z,30.2513,-88.0778,9.68,2.23,197.5,-9999.0,'1111122,1111122,1111122' 
DISL,ioos:station:DISL:DISL:1,2009-08-01T22:00:00Z,30.2513,-88.0778,9.68,2.98,212.2,-9999.0,'1111122,1111122,1111122' 
DISL,ioos:station:DISL:DISL:1,2009-08-01T22:30:00Z,30.2513,-88.0778,9.68,2.66,209.4,-9999.0,'1111122,1111122,1111122' 
DISL,ioos:station:DISL:DISL:1,2009-08-01T23:00:00Z,30.2513,-88.0778,9.68,2.12,236.9,-9999.0,'1111122,1111122,1111122' 
DISL,ioos:station:DISL:DISL:1,2009-08-01T23:30:00Z,30.2513,-88.0778,9.68,2.36,239.8,-9999.0,'1111122,1111122,1111122' 
DISL,ioos:station:DISL:DISL:1,2009-08-02T00:00:00Z,30.2513,-88.0778,9.68,2.41,259.1,-9999.0,'1111122,1111122,1111122' 
DISL,ioos:station:DISL:DISL:1,2009-08-02T00:30:00Z,30.2513,-88.0778,9.68,1.26,254.6,-9999.0,'1111122,1111122,1111122' 
DISL,ioos:station:DISL:DISL:1,2009-08-02T01:00:00Z,30.2513,-88.0778,9.68,1.34,224.3,-9999.0,'1111122,1111122,1111122' 
DISL,ioos:station:DISL:DISL:1,2009-08-02T01:30:00Z,30.2513,-88.0778,9.68,1.36,226.0,-9999.0,'1111122,1111122,1111122' 
DISL,ioos:station:DISL:DISL:1,2009-08-02T02:00:00Z,30.2513,-88.0778,9.68,1.08,223.7,-9999.0,'1111122,1111122,1111122' 
DISL,ioos:station:DISL:DISL:1,2009-08-02T02:30:00Z,30.2513,-88.0778,9.68,1.08,218.3,-9999.0,'1111122,1111122,1111122' 
DISL,ioos:station:DISL:DISL:1,2009-08-02T03:00:00Z,30.2513,-88.0778,9.68,1.15,215.4,-9999.0,'1111122,1111122,1111122' 
DISL,ioos:station:DISL:DISL:1,2009-08-02T03:30:00Z,30.2513,-88.0778,9.68,2.09,217.5,-9999.0,'1111122,1111122,1111122' 
DISL,ioos:station:DISL:DISL:1,2009-08-02T04:00:00Z,30.2513,-88.0778,9.68,2.3,195.8,-9999.0,'1111122,1111122,1111122' 
DISL,ioos:station:DISL:DISL:1,2009-08-02T04:30:00Z,30.2513,-88.0778,9.68,2.01,196.4,-9999.0,'1111122,1111122,1111122' 
DISL,ioos:station:DISL:DISL:1,2009-08-02T05:00:00Z,30.2513,-88.0778,9.68,3.46,211.6,-9999.0,'1111122,1111122,1111122' 
DISL,ioos:station:DISL:DISL:1,2009-08-02T05:30:00Z,30.2513,-88.0778,9.68,3.44,211.3,-9999.0,'1111122,1111122,1111122' 
DISL,ioos:station:DISL:DISL:1,2009-08-02T06:00:00Z,30.2513,-88.0778,9.68,3.42,220.4,-9999.0,'1111122,1111122,1111122' 
DISL,ioos:station:DISL:DISL:1,2009-08-02T06:30:00Z,30.2513,-88.0778,9.68,4.12,219.0,-9999.0,'1111122,1111122,1111122' 
DISL,ioos:station:DISL:DISL:1,2009-08-02T07:00:00Z,30.2513,-88.0778,9.68,3.16,226.5,-9999.0,'1111122,1111122,1111122' 
DISL,ioos:station:DISL:DISL:1,2009-08-02T07:30:00Z,30.2513,-88.0778,9.68,3.67,227.7,-9999.0,'1111122,1111122,1111122' 
DISL,ioos:station:DISL:DISL:1,2009-08-02T08:00:00Z,30.2513,-88.0778,9.68,3.58,239.0,-9999.0,'1111122,1111122,1111122' 
DISL,ioos:station:DISL:DISL:1,2009-08-02T08:30:00Z,30.2513,-88.0778,9.68,3.66,249.5,-9999.0,'1111122,1111122,1111122' 
DISL,ioos:station:DISL:DISL:1,2009-08-02T09:00:00Z,30.2513,-88.0778,9.68,3.27,239.2,-9999.0,'1111122,1111122,1111122' 
DISL,ioos:station:DISL:DISL:1,2009-08-02T09:30:00Z,30.2513,-88.0778,9.68,3.53,249.1,-9999.0,'1111122,1111122,1111122' 
DISL,ioos:station:DISL:DISL:1,2009-08-02T10:00:00Z,30.2513,-88.0778,9.68,3.05,258.8,-9999.0,'1111122,1111122,1111122' 
DISL,ioos:station:DISL:DISL:1,2009-08-02T10:30:00Z,30.2513,-88.0778,9.68,3.4,266.4,-9999.0,'1111122,1111122,1111122' 
DISL,ioos:station:DISL:DISL:1,2009-08-02T11:00:00Z,30.2513,-88.0778,9.68,3.75,267.6,-9999.0,'1111122,1111122,1111122' 
DISL,ioos:station:DISL:DISL:1,2009-08-02T11:30:00Z,30.2513,-88.0778,9.68,4.67,273.1,-9999.0,'1111122,1111122,1111122' 
DISL,ioos:station:DISL:DISL:1,2009-08-02T12:00:00Z,30.2513,-88.0778,9.68,4.31,285.3,-9999.0,'1111122,1111122,1111122' 
DISL,ioos:station:DISL:DISL:1,2009-08-02T12:30:00Z,30.2513,-88.0778,9.68,4.13,283.9,-9999.0,'1111122,1111122,1111122' 
DISL,ioos:station:DISL:DISL:1,2009-08-02T13:00:00Z,30.2513,-88.0778,9.68,5.0,281.4,-9999.0,'1111122,1111122,1111122' 
DISL,ioos:station:DISL:DISL:1,2009-08-02T13:30:00Z,30.2513,-88.0778,9.68,4.47,283.8,-9999.0,'1111122,1111122,1111122' 
DISL,ioos:station:DISL:DISL:1,2009-08-02T14:00:00Z,30.2513,-88.0778,9.68,4.14,287.9,-9999.0,'1111122,1111122,1111122' 
DISL,ioos:station:DISL:DISL:1,2009-08-02T14:30:00Z,30.2513,-88.0778,9.68,3.88,287.6,-9999.0,'1111122,1111122,1111122' 
DISL,ioos:station:DISL:DISL:1,2009-08-02T15:00:00Z,30.2513,-88.0778,9.68,4.11,292.3,-9999.0,'1111122,1111122,1111122' 
DISL,ioos:station:DISL:DISL:1,2009-08-02T15:30:00Z,30.2513,-88.0778,9.68,4.61,285.9,-9999.0,'1111122,1111122,1111122' 
DISL,ioos:station:DISL:DISL:1,2009-08-02T16:00:00Z,30.2513,-88.0778,9.68,3.91,279.3,-9999.0,'1111122,1111122,1111122' 
DISL,ioos:station:DISL:DISL:1,2009-08-02T16:30:00Z,30.2513,-88.0778,9.68,4.11,264.7,-9999.0,'1111122,1111122,1111122' 
DISL,ioos:station:DISL:DISL:1,2009-08-02T17:00:00Z,30.2513,-88.0778,9.68,4.27,273.7,-9999.0,'1111122,1111122,1111122' 
DISL,ioos:station:DISL:DISL:1,2009-08-02T17:30:00Z,30.2513,-88.0778,9.68,3.57,224.8,-9999.0,'1111122,1111122,1111122' 
DISL,ioos:station:DISL:DISL:1,2009-08-02T18:00:00Z,30.2513,-88.0778,9.68,3.7,217.9,-9999.0,'1111122,1111122,1111122' 
DISL,ioos:station:DISL:DISL:1,2009-08-02T18:30:00Z,30.2513,-88.0778,9.68,3.78,229.4,-9999.0,'1111122,1111122,1111122' 
DISL,ioos:station:DISL:DISL:1,2009-08-02T19:00:00Z,30.2513,-88.0778,9.68,3.8,224.2,-9999.0,'1111122,1111122,1111122' 
DISL,ioos:station:DISL:DISL:1,2009-08-02T19:30:00Z,30.2513,-88.0778,9.68,3.85,243.3,-9999.0,'1111122,1111122,1111122' 
DISL,ioos:station:DISL:DISL:1,2009-08-02T20:00:00Z,30.2513,-88.0778,9.68,3.95,275.2,-9999.0,'1111122,1111122,1111122' 
DISL,ioos:station:DISL:DISL:1,2009-08-02T20:30:00Z,30.2513,-88.0778,9.68,4.71,285.0,-9999.0,'1111122,1111122,1111122' 
DISL,ioos:station:DISL:DISL:1,2009-08-02T21:00:00Z,30.2513,-88.0778,9.68,1.77,233.7,-9999.0,'1111122,1111122,1111122' 
DISL,ioos:station:DISL:DISL:1,2009-08-02T21:30:00Z,30.2513,-88.0778,9.68,4.34,290.3,-9999.0,'1111122,1111122,1111122' 
DISL,ioos:station:DISL:DISL:1,2009-08-02T22:00:00Z,30.2513,-88.0778,9.68,2.52,259.8,-9999.0,'1111122,1111122,1111122' 
DISL,ioos:station:DISL:DISL:1,2009-08-02T22:30:00Z,30.2513,-88.0778,9.68,3.24,287.6,-9999.0,'1111122,1111122,1111122' 
DISL,ioos:station:DISL:DISL:1,2009-08-02T23:00:00Z,30.2513,-88.0778,9.68,2.72,289.4,-9999.0,'1111122,1111122,1111122' 
DISL,ioos:station:DISL:DISL:1,2009-08-02T23:30:00Z,30.2513,-88.0778,9.68,1.42,253.0,-9999.0,'1111122,1111122,1111122' 
DISL,ioos:station:DISL:DISL:1,2009-08-03T00:00:00Z,30.2513,-88.0778,9.68,1.34,227.7,-9999.0,'1111122,1111122,1111122' 
DISL,ioos:station:DISL:DISL:1,2009-08-03T00:30:00Z,30.2513,-88.0778,9.68,1.45,242.0,-9999.0,'1111122,1111122,1111122' 
DISL,ioos:station:DISL:DISL:1,2009-08-03T01:00:00Z,30.2513,-88.0778,9.68,1.8,237.1,-9999.0,'1111122,1111122,1111122' 
DISL,ioos:station:DISL:DISL:1,2009-08-03T01:30:00Z,30.2513,-88.0778,9.68,2.04,237.2,-9999.0,'1111122,1111122,1111122' 
DISL,ioos:station:DISL:DISL:1,2009-08-03T02:00:00Z,30.2513,-88.0778,9.68,1.64,244.1,-9999.0,'1111122,1111122,1111122' 
DISL,ioos:station:DISL:DISL:1,2009-08-03T02:30:00Z,30.2513,-88.0778,9.68,1.63,232.8,-9999.0,'1111122,1111122,1111122' 
DISL,ioos:station:DISL:DISL:1,2009-08-03T03:00:00Z,30.2513,-88.0778,9.68,1.39,246.3,-9999.0,'1111122,1111122,1111122' 
DISL,ioos:station:DISL:DISL:1,2009-08-03T03:30:00Z,30.2513,-88.0778,9.68,1.36,260.8,-9999.0,'1111122,1111122,1111122' 
DISL,ioos:station:DISL:DISL:1,2009-08-03T04:00:00Z,30.2513,-88.0778,9.68,1.3,248.5,-9999.0,'1111122,1111122,1111122' 
DISL,ioos:station:DISL:DISL:1,2009-08-03T04:30:00Z,30.2513,-88.0778,9.68,1.39,253.5,-9999.0,'1111122,1111122,1111122' 
DISL,ioos:station:DISL:DISL:1,2009-08-03T05:00:00Z,30.2513,-88.0778,9.68,1.91,263.4,-9999.0,'1111122,1111122,1111122' 
DISL,ioos:station:DISL:DISL:1,2009-08-03T05:30:00Z,30.2513,-88.0778,9.68,2.12,250.2,-9999.0,'1111122,1111122,1111122' 
DISL,ioos:station:DISL:DISL:1,2009-08-03T06:00:00Z,30.2513,-88.0778,9.68,2.1,248.6,-9999.0,'1111122,1111122,1111122' 
DISL,ioos:station:DISL:DISL:1,2009-08-03T06:30:00Z,30.2513,-88.0778,9.68,2.28,258.2,-9999.0,'1111122,1111122,1111122' 
DISL,ioos:station:DISL:DISL:1,2009-08-03T07:00:00Z,30.2513,-88.0778,9.68,1.79,255.7,-9999.0,'1111122,1111122,1111122' 
DISL,ioos:station:DISL:DISL:1,2009-08-03T07:30:00Z,30.2513,-88.0778,9.68,2.07,262.4,-9999.0,'1111122,1111122,1111122' 
DISL,ioos:station:DISL:DISL:1,2009-08-03T08:00:00Z,30.2513,-88.0778,9.68,2.54,256.9,-9999.0,'1111122,1111122,1111122' 
DISL,ioos:station:DISL:DISL:1,2009-08-03T08:30:00Z,30.2513,-88.0778,9.68,1.98,259.4,-9999.0,'1111122,1111122,1111122' 
DISL,ioos:station:DISL:DISL:1,2009-08-03T09:00:00Z,30.2513,-88.0778,9.68,2.62,270.4,-9999.0,'1111122,1111122,1111122' 
DISL,ioos:station:DISL:DISL:1,2009-08-03T09:30:00Z,30.2513,-88.0778,9.68,3.43,298.5,-9999.0,'1111122,1111122,1111122' 
DISL,ioos:station:DISL:DISL:1,2009-08-03T10:00:00Z,30.2513,-88.0778,9.68,3.69,301.7,-9999.0,'1111122,1111122,1111122' 
DISL,ioos:station:DISL:DISL:1,2009-08-03T10:30:00Z,30.2513,-88.0778,9.68,4.13,307.2,-9999.0,'1111122,1111122,1111122' 
DISL,ioos:station:DISL:DISL:1,2009-08-03T11:00:00Z,30.2513,-88.0778,9.68,2.93,294.9,-9999.0,'1111122,1111122,1111122' 
DISL,ioos:station:DISL:DISL:1,2009-08-03T11:30:00Z,30.2513,-88.0778,9.68,3.32,299.8,-9999.0,'1111122,1111122,1111122' 
DISL,ioos:station:DISL:DISL:1,2009-08-03T12:00:00Z,30.2513,-88.0778,9.68,3.88,304.7,-9999.0,'1111122,1111122,1111122' 
DISL,ioos:station:DISL:DISL:1,2009-08-03T12:30:00Z,30.2513,-88.0778,9.68,4.15,298.9,-9999.0,'1111122,1111122,1111122' 
DISL,ioos:station:DISL:DISL:1,2009-08-03T13:00:00Z,30.2513,-88.0778,9.68,4.03,287.2,-9999.0,'1111122,1111122,1111122' 
DISL,ioos:station:DISL:DISL:1,2009-08-03T13:30:00Z,30.2513,-88.0778,9.68,3.73,296.8,-9999.0,'1111122,1111122,1111122' 
DISL,ioos:station:DISL:DISL:1,2009-08-03T14:00:00Z,30.2513,-88.0778,9.68,3.99,285.6,-9999.0,'1111122,1111122,1111122' 
DISL,ioos:station:DISL:DISL:1,2009-08-03T14:30:00Z,30.2513,-88.0778,9.68,3.8,290.4,-9999.0,'1111122,1111122,1111122' 
DISL,ioos:station:DISL:DISL:1,2009-08-03T15:00:00Z,30.2513,-88.0778,9.68,2.99,284.8,-9999.0,'1111122,1111122,1111122' 
DISL,ioos:station:DISL:DISL:1,2009-08-03T15:30:00Z,30.2513,-88.0778,9.68,2.52,314.6,-9999.0,'1111122,1111122,1111122' 
DISL,ioos:station:DISL:DISL:1,2009-08-03T16:00:00Z,30.2513,-88.0778,9.68,0.7,27.98,-9999.0,'1111122,1111122,1111122' 
DISL,ioos:station:DISL:DISL:1,2009-08-03T16:30:00Z,30.2513,-88.0778,9.68,1.38,49.36,-9999.0,'1111122,1111122,1111122' 
DISL,ioos:station:DISL:DISL:1,2009-08-03T17:00:00Z,30.2513,-88.0778,9.68,2.3,116.5,-9999.0,'1111122,1111122,1111122' 
DISL,ioos:station:DISL:DISL:1,2009-08-03T17:30:00Z,30.2513,-88.0778,9.68,2.22,174.7,-9999.0,'1111122,1111122,1111122' 
DISL,ioos:station:DISL:DISL:1,2009-08-03T18:00:00Z,30.2513,-88.0778,9.68,2.74,178.5,-9999.0,'1111122,1111122,1111122' 
DISL,ioos:station:DISL:DISL:1,2009-08-03T18:30:00Z,30.2513,-88.0778,9.68,2.4,169.0,-9999.0,'1111122,1111122,1111122' 
DISL,ioos:station:DISL:DISL:1,2009-08-03T19:00:00Z,30.2513,-88.0778,9.68,2.76,195.2,-9999.0,'1111122,1111122,1111122' 
DISL,ioos:station:DISL:DISL:1,2009-08-03T19:30:00Z,30.2513,-88.0778,9.68,2.94,216.9,-9999.0,'1111122,1111122,1111122' 
DISL,ioos:station:DISL:DISL:1,2009-08-03T20:00:00Z,30.2513,-88.0778,9.68,3.46,277.0,-9999.0,'1111122,1111122,1111122' 
DISL,ioos:station:DISL:DISL:1,2009-08-03T20:30:00Z,30.2513,-88.0778,9.68,2.84,313.3,-9999.0,'1111122,1111122,1111122' 
DISL,ioos:station:DISL:DISL:1,2009-08-03T21:00:00Z,30.2513,-88.0778,9.68,2.44,356.3,-9999.0,'1111122,1111122,1111122' 
DISL,ioos:station:DISL:DISL:1,2009-08-03T21:30:00Z,30.2513,-88.0778,9.68,1.43,26.93,-9999.0,'1111122,1111122,1111122' 
DISL,ioos:station:DISL:DISL:1,2009-08-03T22:00:00Z,30.2513,-88.0778,9.68,0.57,341.6,-9999.0,'1111122,1111122,1111122' 
DISL,ioos:station:DISL:DISL:1,2009-08-03T22:30:00Z,30.2513,-88.0778,9.68,1.93,186.6,-9999.0,'1111122,1111122,1111122' 
DISL,ioos:station:DISL:DISL:1,2009-08-03T23:00:00Z,30.2513,-88.0778,9.68,2.19,218.5,-9999.0,'1111122,1111122,1111122' 
DISL,ioos:station:DISL:DISL:1,2009-08-03T23:30:00Z,30.2513,-88.0778,9.68,2.0,218.4,-9999.0,'1111122,1111122,1111122' 
DISL,ioos:station:DISL:DISL:1,2009-08-04T00:00:00Z,30.2513,-88.0778,9.68,1.51,235.3,-9999.0,'1111122,1111122,1111122' 
DISL,ioos:station:DISL:DISL:1,2009-08-04T00:30:00Z,30.2513,-88.0778,9.68,1.38,243.4,-9999.0,'1111122,1111122,1111122' 
DISL,ioos:station:DISL:DISL:1,2009-08-04T01:00:00Z,30.2513,-88.0778,9.68,2.17,249.7,-9999.0,'1111122,1111122,1111122' 
DISL,ioos:station:DISL:DISL:1,2009-08-04T01:30:00Z,30.2513,-88.0778,9.68,2.2,249.3,-9999.0,'1111122,1111122,1111122' 
DISL,ioos:station:DISL:DISL:1,2009-08-04T02:00:00Z,30.2513,-88.0778,9.68,3.31,271.9,-9999.0,'1111122,1111122,1111122' 
DISL,ioos:station:DISL:DISL:1,2009-08-04T02:30:00Z,30.2513,-88.0778,9.68,1.21,262.2,-9999.0,'1111122,1111122,1111122' 
DISL,ioos:station:DISL:DISL:1,2009-08-04T03:00:00Z,30.2513,-88.0778,9.68,1.26,245.7,-9999.0,'1111122,1111122,1111122' 
DISL,ioos:station:DISL:DISL:1,2009-08-04T03:30:00Z,30.2513,-88.0778,9.68,1.09,235.9,-9999.0,'1111122,1111122,1111122' 
DISL,ioos:station:DISL:DISL:1,2009-08-04T04:00:00Z,30.2513,-88.0778,9.68,1.05,251.3,-9999.0,'1111122,1111122,1111122' 
DISL,ioos:station:DISL:DISL:1,2009-08-04T04:30:00Z,30.2513,-88.0778,9.68,1.43,277.7,-9999.0,'1111122,1111122,1111122' 
DISL,ioos:station:DISL:DISL:1,2009-08-04T05:00:00Z,30.2513,-88.0778,9.68,0.9,272.9,-9999.0,'1111122,1111122,1111122' 
DISL,ioos:station:DISL:DISL:1,2009-08-04T05:30:00Z,30.2513,-88.0778,9.68,1.35,233.6,-9999.0,'1111122,1111122,1111122' 
DISL,ioos:station:DISL:DISL:1,2009-08-04T06:00:00Z,30.2513,-88.0778,9.68,1.41,239.7,-9999.0,'1111122,1111122,1111122' 
DISL,ioos:station:DISL:DISL:1,2009-08-04T06:30:00Z,30.2513,-88.0778,9.68,1.68,265.5,-9999.0,'1111122,1111122,1111122' 
DISL,ioos:station:DISL:DISL:1,2009-08-04T07:00:00Z,30.2513,-88.0778,9.68,2.11,248.7,-9999.0,'1111122,1111122,1111122' 
DISL,ioos:station:DISL:DISL:1,2009-08-04T07:30:00Z,30.2513,-88.0778,9.68,1.92,254.2,-9999.0,'1111122,1111122,1111122' 
DISL,ioos:station:DISL:DISL:1,2009-08-04T08:00:00Z,30.2513,-88.0778,9.68,1.49,249.4,-9999.0,'1111122,1111122,1111122' 
DISL,ioos:station:DISL:DISL:1,2009-08-04T08:30:00Z,30.2513,-88.0778,9.68,2.07,250.0,-9999.0,'1111122,1111122,1111122' 
DISL,ioos:station:DISL:DISL:1,2009-08-04T09:00:00Z,30.2513,-88.0778,9.68,2.22,234.4,-9999.0,'1111122,1111122,1111122' 
DISL,ioos:station:DISL:DISL:1,2009-08-04T09:30:00Z,30.2513,-88.0778,9.68,1.73,254.0,-9999.0,'1111122,1111122,1111122' 
DISL,ioos:station:DISL:DISL:1,2009-08-04T10:00:00Z,30.2513,-88.0778,9.68,2.17,250.4,-9999.0,'1111122,1111122,1111122' 
DISL,ioos:station:DISL:DISL:1,2009-08-04T10:30:00Z,30.2513,-88.0778,9.68,1.94,256.3,-9999.0,'1111122,1111122,1111122' 
DISL,ioos:station:DISL:DISL:1,2009-08-04T11:00:00Z,30.2513,-88.0778,9.68,2.17,264.9,-9999.0,'1111122,1111122,1111122' 
DISL,ioos:station:DISL:DISL:1,2009-08-04T11:30:00Z,30.2513,-88.0778,9.68,2.52,263.0,-9999.0,'1111122,1111122,1111122' 
DISL,ioos:station:DISL:DISL:1,2009-08-04T12:00:00Z,30.2513,-88.0778,9.68,2.23,288.5,-9999.0,'1111122,1111122,1111122' 
DISL,ioos:station:DISL:DISL:1,2009-08-04T12:30:00Z,30.2513,-88.0778,9.68,3.72,304.3,-9999.0,'1111122,1111122,1111122' 
DISL,ioos:station:DISL:DISL:1,2009-08-04T13:00:00Z,30.2513,-88.0778,9.68,2.49,309.2,-9999.0,'1111122,1111122,1111122' 
DISL,ioos:station:DISL:DISL:1,2009-08-04T13:30:00Z,30.2513,-88.0778,9.68,1.42,61.31,-9999.0,'1111122,1111122,1111122' 
DISL,ioos:station:DISL:DISL:1,2009-08-04T14:00:00Z,30.2513,-88.0778,9.68,1.52,189.6,-9999.0,'1111122,1111122,1111122' 
DISL,ioos:station:DISL:DISL:1,2009-08-04T14:30:00Z,30.2513,-88.0778,9.68,2.38,199.7,-9999.0,'1111122,1111122,1111122' 
DISL,ioos:station:DISL:DISL:1,2009-08-04T15:00:00Z,30.2513,-88.0778,9.68,2.56,193.7,-9999.0,'1111122,1111122,1111122' 
DISL,ioos:station:DISL:DISL:1,2009-08-04T15:30:00Z,30.2513,-88.0778,9.68,1.47,213.2,-9999.0,'1111122,1111122,1111122' 
DISL,ioos:station:DISL:DISL:1,2009-08-04T16:00:00Z,30.2513,-88.0778,9.68,1.82,273.5,-9999.0,'1111122,1111122,1111122' 
DISL,ioos:station:DISL:DISL:1,2009-08-04T16:30:00Z,30.2513,-88.0778,9.68,2.27,221.6,-9999.0,'1111122,1111122,1111122' 
DISL,ioos:station:DISL:DISL:1,2009-08-04T17:00:00Z,30.2513,-88.0778,9.68,3.11,206.8,-9999.0,'1111122,1111122,1111122' 
DISL,ioos:station:DISL:DISL:1,2009-08-04T17:30:00Z,30.2513,-88.0778,9.68,3.56,208.9,-9999.0,'1111122,1111122,1111122' 
DISL,ioos:station:DISL:DISL:1,2009-08-04T18:00:00Z,30.2513,-88.0778,9.68,3.5,196.5,-9999.0,'1111122,1111122,1111122' 
DISL,ioos:station:DISL:DISL:1,2009-08-04T18:30:00Z,30.2513,-88.0778,9.68,2.86,200.2,-9999.0,'1111122,1111122,1111122' 
DISL,ioos:station:DISL:DISL:1,2009-08-04T19:00:00Z,30.2513,-88.0778,9.68,3.34,206.9,-9999.0,'1111122,1111122,1111122' 
DISL,ioos:station:DISL:DISL:1,2009-08-04T19:30:00Z,30.2513,-88.0778,9.68,3.75,212.3,-9999.0,'1111122,1111122,1111122' 
DISL,ioos:station:DISL:DISL:1,2009-08-04T20:00:00Z,30.2513,-88.0778,9.68,3.96,208.4,-9999.0,'1111122,1111122,1111122' 
DISL,ioos:station:DISL:DISL:1,2009-08-04T20:30:00Z,30.2513,-88.0778,9.68,3.75,210.3,-9999.0,'1111122,1111122,1111122' 
DISL,ioos:station:DISL:DISL:1,2009-08-04T21:00:00Z,30.2513,-88.0778,9.68,3.34,219.3,-9999.0,'1111122,1111122,1111122' 
DISL,ioos:station:DISL:DISL:1,2009-08-04T21:30:00Z,30.2513,-88.0778,9.68,2.81,226.9,-9999.0,'1111122,1111122,1111122' 
DISL,ioos:station:DISL:DISL:1,2009-08-04T22:00:00Z,30.2513,-88.0778,9.68,2.98,224.6,-9999.0,'1111122,1111122,1111122' 
DISL,ioos:station:DISL:DISL:1,2009-08-04T22:30:00Z,30.2513,-88.0778,9.68,2.14,223.2,-9999.0,'1111122,1111122,1111122' 
DISL,ioos:station:DISL:DISL:1,2009-08-04T23:00:00Z,30.2513,-88.0778,9.68,2.47,210.2,-9999.0,'1111122,1111122,1111122' 
DISL,ioos:station:DISL:DISL:1,2009-08-04T23:30:00Z,30.2513,-88.0778,9.68,2.26,213.7,-9999.0,'1111122,1111122,1111122' 
DISL,ioos:station:DISL:DISL:1,2009-08-05T00:00:00Z,30.2513,-88.0778,9.68,2.14,227.6,-9999.0,'1111122,1111122,1111122' 
DISL,ioos:station:DISL:DISL:1,2009-08-05T00:30:00Z,30.2513,-88.0778,9.68,2.45,217.8,-9999.0,'1111122,1111122,1111122' 
DISL,ioos:station:DISL:DISL:1,2009-08-05T01:00:00Z,30.2513,-88.0778,9.68,1.9,250.4,-9999.0,'1111122,1111122,1111122' 
DISL,ioos:station:DISL:DISL:1,2009-08-05T01:30:00Z,30.2513,-88.0778,9.68,1.67,241.5,-9999.0,'1111122,1111122,1111122' 
DISL,ioos:station:DISL:DISL:1,2009-08-05T02:00:00Z,30.2513,-88.0778,9.68,2.08,227.1,-9999.0,'1111122,1111122,1111122' 
DISL,ioos:station:DISL:DISL:1,2009-08-05T02:30:00Z,30.2513,-88.0778,9.68,1.61,239.0,-9999.0,'1111122,1111122,1111122' 
DISL,ioos:station:DISL:DISL:1,2009-08-05T03:00:00Z,30.2513,-88.0778,9.68,1.41,250.0,-9999.0,'1111122,1111122,1111122' 
DISL,ioos:station:DISL:DISL:1,2009-08-05T03:30:00Z,30.2513,-88.0778,9.68,1.48,262.3,-9999.0,'1111122,1111122,1111122' 